Regional Weather Roundup
Issued by NWS Little Rock, AR

Home | Current Version | Previous Version | Graphics & Text | Print | Product List | Glossary On
Versions: 1 2 3 4 5 6 7 8 9 10 11 12 13 14 15 16 17 18 19 20 21 22 23 24 25 26 27 28 29 30 31 32 33 34 35 36 37 38 39 40 41 42 43 44 45 46 47 48 49 50
000
ASUS44 KLZK 050805
RWRLZK

WEATHER ROUNDUP FOR ARKANSAS
NATIONAL WEATHER SERVICE LITTLE ROCK AR
200 AM CST MON DEC 05 2016

NOTE: "FAIR" INDICATES FEW OR NO CLOUDS BELOW 12,000 FEET WITH NO
SIGNIFICANT WEATHER AND/OR OBSTRUCTIONS TO VISIBILITY.

ARZ001-003-010-029-050900-
NORTHWEST ARKANSAS

CITY           SKY/WX    TMP DP  RH WIND       PRES   REMARKS
FAYETTEVILLE   CLOUDY    29  29 100 CALM      30.05R FOG
FORT SMITH     PTCLDY    38  37  97 NE3       30.05S FOG
HARRISON       FOG       32  31  96 N3        30.05R VSB 3/4
BENTONVILLE    CLOUDY    34  28  80 CALM      30.04S
ROGERS         PTCLDY    31  30  96 CALM      30.05S
SILOAM SPGS    PTCLDY    32  30  93 CALM      30.04S
HIGHFILL       FOG       31  30  96 CALM      30.04R VSB 1
$$

ARZ004-005-016-050900-
NORTH CENTRAL ARKANSAS

CITY           SKY/WX    TMP DP  RH WIND       PRES   REMARKS
BATESVILLE     CLOUDY    36  32  87 CALM      30.07S VSB 1/4
FLIPPIN        CLOUDY    32  27  80 CALM      30.04R VSB 1/4
MTN HOME       FOG       34  33  96 CALM      30.05S VSB 1/2
$$

ARZ040-041-050900-
WEST CENTRAL ARKANSAS

CITY           SKY/WX    TMP DP  RH WIND       PRES   REMARKS
MENA           CLOUDY    41  41 100 CALM      30.04F
MOUNT IDA      MOCLDY    38  37  97 CALM      30.01S FOG
$$

ARZ009-017-025-026-028-050900-
NORTHEAST ARKANSAS

CITY           SKY/WX    TMP DP  RH WIND       PRES   REMARKS
CORNING        CLOUDY    37  37 100 N6        30.09R
JONESBORO      PTCLDY    37  36  96 CALM      30.06F
NEWPORT        FOG       35  35 100 N5        30.07S VSB 3/4 WCI  31
WALNUT RIDGE     N/A     37  34  87 NW3       30.07R VSB 3/4
BLYTHEVILLE    CLOUDY    44  38  79 NE6       30.07F
$$

ARZ022-023-033-042-044-050900-
CENTRAL ARKANSAS

CITY           SKY/WX    TMP DP  RH WIND       PRES   REMARKS
LITTLE ROCK    MOCLDY    40  40 100 CALM      30.05S FOG
N LITTLE ROCK    N/A     41  40  95 CALM      30.06F
JACKSONVILLE   MIX PCPN  38  38  99 W3        30.05S VSB 1/4
SEARCY         PTCLDY    36  36 100 CALM      30.08R FOG
HOT SPRINGS    CLOUDY    41  41 100 N3        30.04S
RUSSELLVILLE   FOG       41  40  96 NW3       30.05S VSB 1/4
CLINTON        FOG       36  36 100 CALM      30.07S VSB 1/4
$$

ARZ036-050900-
EAST ARKANSAS

CITY           SKY/WX    TMP DP  RH WIND       PRES   REMARKS
WEST MEMPHIS   CLOUDY    44  39  82 NE10      30.05F
$$

ARZ050-053-066-070-073-050900-
SOUTHWEST ARKANSAS

CITY           SKY/WX    TMP DP  RH WIND       PRES   REMARKS
ARKADELPHIA    FAIR      44  43  96 N3        30.05S
CAMDEN         CLOUDY    45  41  87 NE3       30.02F FOG
TEXARKANA      MOCLDY    47  43  86 N3        30.03S
EL DORADO      PTCLDY    45  43  93 N5        30.02F
DE QUEEN       CLOUDY    43  43 100 CALM      30.03F FOG
$$

ARZ056-057-069-050900-
SOUTHEAST ARKANSAS

CITY           SKY/WX    TMP DP  RH WIND       PRES   REMARKS
PINE BLUFF     CLOUDY    44  43  96 NE3       30.04F
STUTTGART      PTCLDY    43  37  81 N6        30.05S
MONTICELLO     CLOUDY    45  43  93 VRB3      30.03S

$$





USA.gov is the U.S. government's official web portal to all federal, state and local government web resources and services.